NOAA 16 DEB, 42337

Orbit data source: Space-Track

NOAA 16 DEB, 42337 is space debris in SSO originally from a launch on Thu, 21 Sep 2000 UTC launched from the Air Force Western Test Range (AFWTR). Debris objects in space refer to the collection of defunct objects orbiting the Earth. Examples of debris include non-operational satellites, rocket bodies, and fragments generated from explosions, collisions, or faulty payload assembly.

Loading next visibility...
Identifier
42337, 2000-055QD
Orbit
SSO
Country
Flag of USUS
Related business
Manufacturer
Unknown
Mission
Spacecraft
Bus & Motor
Unknown
Mass
Unknown
Launch date (UTC)
2000-09-21 (25 years ago)
Launch vehicle
Unknown
Launch site
Air Force Western Test Range (AFWTR)
Object type
Payload
Rocket body
Debris
Shape & HBR
Unknown shape, 0.1 m
Radar Cross Section
Small (<0.1 m²)

Expand to show TLE details & history
Last TLE update: 2 days ago

TLE from 2 days ago
0 NOAA 16 DEB
1 42337U 00055QD  26036.28123484  .00031225  00000-0  50647-2 0  9995
2 42337  98.8000 205.4881 0033842  15.6304 344.5937 14.70719511522755
Epoch: 2026-02-05T06:44Z
TLE epoch observation values (Epoch: 2026-02-05T06:44:58.690Z)
Latitude
0.00001°
Longitude
-31.19216°
Altitude
638.795 km
Speed
7.551 km/s
True Right ascension
13h 41m 57s
True Declination
0° 00' 00"
Sunlit
Object was in daylight at epoch
Visualization orbit readout
Latitude
Unknown
Longitude
Unknown
Altitude
Unknown
Speed
Unknown
Apparent Right ascension
Unknown
Apparent Declination
Unknown
Sunlit
N/A
Visualization observer readout
Local Sidereal Time
19:09:37
Azimuth
Unknown
Elevation
Unknown
Doppler factor
Unknown
Orbital elements
Apogee altitude
679.672 km
Perigee altitude
632.063 km
Semi-major axis
7,034.005 km
Eccentricity
0.00338
Inclination
98.8°
RAAN
205.4881°
Arg. of periapsis
15.6304°
True anomaly
344.49025°
Mean anomaly
344.5937°
Eccentric anomaly
344.54202°
Mean motion
3.67908 °/min
Orbital period
97.85 mins
BSTAR
0.0050647
Loading maneuver chart data...
Computing Atmospheric mass density...
Loading historical data...
Loading historical data...
Loading historical data...
Loading historical data...
Loading historical data...
Loading historical data...
Loading historical data...

Documentation

Showing up to 5 results
|